TimeEDT,TemperatureF,Dew PointF,Humidity,Sea Level PressureIn,VisibilityMPH,Wind Direction,Wind SpeedMPH,Gust SpeedMPH,PrecipitationIn,Events,Conditions,WindDirDegrees,DateUTC
12:51 AM,57.0,50.0,77,30.05,10.0,Calm,Calm,-,N/A,,Clear,0,2013-07-25 04:51:00
1:51 AM,57.0,48.9,74,30.04,10.0,Calm,Calm,-,N/A,,Clear,0,2013-07-25 05:51:00
2:51 AM,55.9,48.0,75,30.04,10.0,Calm,Calm,-,N/A,,Clear,0,2013-07-25 06:51:00
3:51 AM,55.9,46.9,72,30.05,10.0,Calm,Calm,-,N/A,,Clear,0,2013-07-25 07:51:00
4:51 AM,55.0,46.9,74,30.07,10.0,Calm,Calm,-,N/A,,Clear,0,2013-07-25 08:51:00
5:51 AM,55.0,46.0,72,30.07,10.0,SSE,5.8,-,N/A,,Clear,150,2013-07-25 09:51:00
6:51 AM,57.0,46.9,69,30.08,10.0,SE,4.6,-,N/A,,Clear,130,2013-07-25 10:51:00
7:51 AM,61.0,48.0,62,30.09,10.0,Variable,3.5,-,N/A,,Clear,0,2013-07-25 11:51:00
8:51 AM,64.9,48.9,56,30.10,10.0,ESE,5.8,-,N/A,,Clear,110,2013-07-25 12:51:00
9:51 AM,68.0,46.9,47,30.11,10.0,East,11.5,-,N/A,,Clear,80,2013-07-25 13:51:00
10:51 AM,69.1,46.9,45,30.11,10.0,East,5.8,-,N/A,,Clear,90,2013-07-25 14:51:00
11:51 AM,71.1,46.9,42,30.11,10.0,NE,8.1,-,N/A,,Clear,40,2013-07-25 15:51:00
12:51 PM,72.0,50.0,46,30.11,10.0,NNE,13.8,-,N/A,,Clear,30,2013-07-25 16:51:00
1:51 PM,72.0,50.0,46,30.10,10.0,NNE,9.2,19.6,N/A,,Clear,30,2013-07-25 17:51:00
2:51 PM,71.1,51.1,49,30.09,10.0,NE,13.8,-,0.00,,Clear,50,2013-07-25 18:51:00
3:51 PM,73.0,48.0,41,30.09,10.0,NE,11.5,-,N/A,,Clear,40,2013-07-25 19:51:00
4:51 PM,73.0,50.0,44,30.10,10.0,North,11.5,-,N/A,,Clear,360,2013-07-25 20:51:00
5:51 PM,72.0,51.1,48,30.10,10.0,NE,11.5,-,N/A,,Clear,50,2013-07-25 21:51:00
6:51 PM,72.0,50.0,46,30.09,10.0,NNE,10.4,-,N/A,,Clear,30,2013-07-25 22:51:00
7:51 PM,71.1,51.1,49,30.08,10.0,NE,6.9,-,N/A,,Clear,50,2013-07-25 23:51:00
8:51 PM,68.0,51.1,55,30.08,10.0,ENE,5.8,-,N/A,,Clear,60,2013-07-26 00:51:00
9:51 PM,66.9,52.0,59,30.10,10.0,Calm,Calm,-,N/A,,Clear,0,2013-07-26 01:51:00
10:51 PM,63.0,54.0,72,30.11,10.0,Calm,Calm,-,N/A,,Clear,0,2013-07-26 02:51:00
11:51 PM,63.0,53.1,70,30.10,10.0,Calm,Calm,-,N/A,,Clear,0,2013-07-26 03:51:00